User: anonymous   Login
Location: Newark
(61.5000°N, 23.7667°E)
Time: 00:31:38
(UTC+00:00)
Language:

UNISAT 6 - Orbit

View from above orbital plane
View from above orbital plane
View from above satellite
View from above satellite

Ground track
Ground track

The orbit data is extracted from the following two-line orbital elements,

1 40012U 14033C   19321.53162355  .00000161  00000-0  31413-4 0  9998
2 40012  97.7343 181.4275 0057697 329.1365  30.6456 14.74033155291057
Epoch (UTC): 17 November 2019 12:45:32
Eccentricity: 0.0057697
inclination: 97.7343°
perigee height: 607 km
apogee height: 689 km
right ascension of ascending node: 181.4275°
argument of perigee: 329.1365°
revolutions per day: 14.74033155
mean anomaly at epoch: 30.6456°
orbit number at epoch: 29105

The dashed part of the orbit path shows where the satellite is in the earth's shadow,  

DLR